Location: Unspecified
(48.1170°N, 0.0000°E)
Time: 13:03:56
(UTC+00:00)

Oscar 19 - Visible Passes

Search period start: 19 August 2019 00:00
Search period end: 29 August 2019 00:00
Orbit: 774 x 790 km, 98.7° (Epoch: 18 August)

Date Brightness Start Highest point End Pass type
(mag) Time Alt. Az. Time Alt. Az. Time Alt. Az.
19 Aug 11.4 01:39:46 10° NNE 01:44:46 44° E 01:46:01 37° SE visible
19 Aug 11.7 03:19:25 10° N 03:23:54 30° WNW 03:26:34 19° WSW visible
20 Aug 12.2 01:08:24 10° NE 01:12:38 24° E 01:13:39 23° ESE visible
20 Aug 11.0 02:47:10 10° N 02:52:13 52° WNW 02:54:12 34° SW visible
21 Aug 12.9 00:37:56 10° ENE 00:40:20 13° E 00:41:17 13° E visible
21 Aug 10.6 02:15:09 10° NNE 02:20:24 87° ESE 02:21:50 50° SSW visible
21 Aug 12.5 03:55:48 10° NNW 03:59:01 17° NW 04:02:15 10° W visible
22 Aug 11.3 01:43:23 10° NNE 01:48:26 47° E 01:49:28 42° SE visible
22 Aug 11.8 03:23:08 10° N 03:27:31 28° WNW 03:30:00 19° WSW visible
23 Aug 12.1 01:11:58 10° NE 01:16:19 26° E 01:17:06 25° ESE visible
23 Aug 11.0 02:50:50 10° N 02:55:51 49° WNW 02:57:38 34° WSW visible
24 Aug 12.9 00:41:20 10° NE 00:44:01 14° E 00:44:44 14° E visible
24 Aug 10.6 02:18:48 10° NNE 02:24:03 88° W 02:25:16 54° SSW visible
24 Aug 12.5 03:59:34 10° NNW 04:02:37 16° NW 04:05:39 10° W visible
25 Aug 11.1 01:47:00 10° NNE 01:52:06 51° E 01:52:54 46° SE visible
25 Aug 11.9 03:26:50 10° N 03:31:07 27° WNW 03:33:27 19° W visible
26 Aug 12.1 01:15:32 10° NE 01:19:59 28° E 01:20:32 27° ESE visible
26 Aug 11.1 02:54:30 10° N 02:59:28 46° WNW 03:01:05 35° WSW visible
27 Aug 12.8 00:44:45 10° NE 00:47:43 15° E 00:48:10 15° E visible
27 Aug 10.5 02:22:26 10° NNE 02:27:41 83° WNW 02:28:42 59° SSW visible
27 Aug 12.6 04:03:21 10° NNW 04:06:13 15° NW 04:09:04 10° W visible
28 Aug 11.0 01:50:37 10° NNE 01:55:45 54° E 01:56:20 51° SE visible
28 Aug 12.0 03:30:32 10° N 03:34:44 25° WNW 03:36:53 19° W visible
